TimeCET,TemperatureF,Dew PointF,Humidity,Sea Level PressureIn,VisibilityMPH,Wind Direction,Wind SpeedMPH,Gust SpeedMPH,PrecipitationIn,Events,Conditions,WindDirDegrees,DateUTC
12:00 AM,35.6,32.0,87,29.83,6.2,Variable,3.5,-,N/A,,Overcast,0,2012-12-04 23:00:00
12:30 AM,35.6,32.0,87,29.83,6.2,ESE,3.5,-,N/A,,Overcast,120,2012-12-04 23:30:00
1:00 AM,35.6,32.0,87,29.83,6.2,Variable,3.5,-,N/A,,Mostly Cloudy,0,2012-12-05 00:00:00
1:30 AM,35.6,32.0,87,29.83,6.2,ESE,1.2,-,N/A,,Unknown,110,2012-12-05 00:30:00
2:00 AM,33.8,32.0,93,29.80,6.2,Variable,2.3,-,N/A,,Unknown,0,2012-12-05 01:00:00
2:30 AM,33.8,32.0,93,29.80,6.2,SE,1.2,-,N/A,,Unknown,130,2012-12-05 01:30:00
3:00 AM,33.8,32.0,93,29.80,6.2,ESE,2.3,-,N/A,,Unknown,120,2012-12-05 02:00:00
3:30 AM,33.8,32.0,93,29.80,6.2,South,2.3,-,N/A,,Unknown,180,2012-12-05 02:30:00
4:00 AM,35.6,33.8,93,29.80,6.2,East,3.5,-,N/A,,Unknown,100,2012-12-05 03:00:00
4:30 AM,35.6,33.8,93,29.77,6.2,Variable,2.3,-,N/A,,Unknown,0,2012-12-05 03:30:00
5:00 AM,35.6,33.8,93,29.77,6.2,Calm,Calm,-,N/A,,Unknown,0,2012-12-05 04:00:00
5:30 AM,33.8,32.0,93,29.77,6.2,Variable,1.2,-,N/A,,Unknown,0,2012-12-05 04:30:00
6:00 AM,32.0,30.2,93,29.77,6.2,SSE,2.3,-,N/A,,Unknown,160,2012-12-05 05:00:00
6:30 AM,30.2,30.2,100,29.77,6.2,SSW,2.3,-,N/A,,Unknown,200,2012-12-05 05:30:00
7:00 AM,32.0,32.0,100,29.77,6.2,Calm,Calm,-,N/A,,Unknown,0,2012-12-05 06:00:00
7:30 AM,32.0,32.0,100,29.77,6.2,Calm,Calm,-,N/A,,Overcast,0,2012-12-05 06:30:00
8:00 AM,32.0,32.0,100,29.77,6.2,Variable,2.3,-,N/A,,Mostly Cloudy,0,2012-12-05 07:00:00
8:30 AM,30.2,30.2,100,29.80,6.2,SSW,2.3,-,N/A,,Unknown,200,2012-12-05 07:30:00
9:00 AM,33.8,33.8,100,29.80,6.2,North,3.5,-,N/A,,Unknown,10,2012-12-05 08:00:00
9:30 AM,35.6,35.6,100,29.80,6.2,Calm,Calm,-,N/A,,Unknown,0,2012-12-05 08:30:00
10:00 AM,39.2,35.6,87,29.80,6.2,Variable,1.2,-,N/A,,Unknown,0,2012-12-05 09:00:00
10:30 AM,39.2,35.6,87,29.80,4.3,Variable,2.3,-,N/A,,Unknown,0,2012-12-05 09:30:00
11:00 AM,42.8,37.4,81,29.80,6.2,Variable,2.3,-,N/A,,Unknown,0,2012-12-05 10:00:00
11:30 AM,46.4,37.4,71,29.80,6.2,Variable,1.2,-,N/A,,Unknown,0,2012-12-05 10:30:00
12:00 PM,46.4,35.6,66,29.80,6.2,Variable,1.2,-,N/A,,Unknown,0,2012-12-05 11:00:00
12:30 PM,48.2,35.6,62,29.80,6.2,North,3.5,-,N/A,,Mostly Cloudy,350,2012-12-05 11:30:00
1:00 PM,48.2,37.4,66,29.80,6.2,North,4.6,-,N/A,,Unknown,350,2012-12-05 12:00:00
1:30 PM,50.0,35.6,58,29.80,6.2,NNW,4.6,-,N/A,,Unknown,340,2012-12-05 12:30:00
2:00 PM,50.0,35.6,58,29.80,6.2,North,5.8,-,N/A,,Partly Cloudy,360,2012-12-05 13:00:00
4:00 PM,48.2,33.8,58,29.80,6.2,Variable,2.3,-,N/A,,Mostly Cloudy,0,2012-12-05 15:00:00
4:30 PM,50.0,33.8,54,29.80,6.2,West,2.3,-,N/A,,Scattered Clouds,260,2012-12-05 15:30:00
5:00 PM,46.4,32.0,57,29.80,6.2,Calm,Calm,-,N/A,,Unknown,0,2012-12-05 16:00:00
5:30 PM,41.0,33.8,76,29.80,6.2,NW,1.2,-,N/A,,Unknown,310,2012-12-05 16:30:00
6:00 PM,39.2,33.8,81,29.80,6.2,Calm,Calm,-,N/A,,Unknown,0,2012-12-05 17:00:00
6:30 PM,35.6,32.0,87,29.80,6.2,Calm,Calm,-,N/A,,Unknown,0,2012-12-05 17:30:00
7:00 PM,33.8,32.0,93,29.83,6.2,Calm,Calm,-,N/A,,Unknown,0,2012-12-05 18:00:00
7:30 PM,35.6,33.8,93,29.83,6.2,Variable,3.5,-,N/A,,Unknown,0,2012-12-05 18:30:00
8:00 PM,35.6,32.0,87,29.83,6.2,West,5.8,-,N/A,,Unknown,280,2012-12-05 19:00:00
8:30 PM,39.2,32.0,75,29.83,6.2,NW,4.6,-,N/A,,Unknown,320,2012-12-05 19:30:00
9:00 PM,35.6,32.0,87,29.86,6.2,Variable,1.2,-,N/A,,Unknown,0,2012-12-05 20:00:00
9:30 PM,33.8,30.2,87,29.83,6.2,Variable,2.3,-,N/A,,Unknown,0,2012-12-05 20:30:00
10:00 PM,32.0,30.2,93,29.86,6.2,Calm,Calm,-,N/A,,Unknown,0,2012-12-05 21:00:00
10:30 PM,30.2,28.4,93,29.83,6.2,Calm,Calm,-,N/A,,Unknown,0,2012-12-05 21:30:00
11:00 PM,32.0,30.2,93,29.86,6.2,Variable,1.2,-,N/A,,Unknown,0,2012-12-05 22:00:00
11:30 PM,30.2,28.4,93,29.86,6.2,Variable,2.3,-,N/A,,Unknown,0,2012-12-05 22:30:00